STARLINK-32894, 62969

Orbit data source: Space-Track

STARLINK-32894, 62969 is a payload satellite owned by SpaceX/Seattle (US) in LEO that was launched on Tue, 11 Feb 2025 UTC via an FALCON 9 launch vehicle from the Air Force Western Test Range (AFWTR). Payload-class satellites include a variety of spacecraft equipped with specific instruments for various scientific and technological missions. These include communications satellites like Starlink; space stations such as the ISS; scientific satellites like the Hubble; Earth observation satellites from companies like Planet Labs, Umbra, and HawkEye 360; GPS; miniature CubeSats for education and research; and military/defense satellites.

Loading next visibility...
Identifier
62969, 2025-029X
Orbit
LEO
Country
Flag of USUS
Related business
Manufacturer
SpaceX/Seattle
Mission
Operational Commercial Communications
Bus & Motor
STARLINK V2M, Unknown motor
Mass
730 kg wet, ~700 kg dry
Launch date (UTC)
2025-02-11 (1 year ago)
Launch vehicle
FALCON 9
Launch site
Air Force Western Test Range (AFWTR)
Object type
Payload
Rocket body
Debris
Shape & HBR
Box + 2 Pan, 17.7 m
Radar Cross Section
33.884 m², Large (>1 m²)

Expand to show TLE details & history
Last TLE update: 2 days ago

TLE from 2 days ago
0 STARLINK-32894
1 62969U 25029X   26170.27622392  .00028512  00000-0  97084-3 0  9998
2 62969  53.1592 120.4012 0001187  88.4890 271.6246 15.30208293 76872
Epoch: 2026-06-19T06:37Z
TLE epoch observation values (Epoch: 2026-06-19T06:37:45.746Z)
Latitude
-0.00009°
Longitude
113.453°
Altitude
476.067 km
Speed
7.629 km/s
True Right ascension
08h 01m 36s
True Declination
0° 00' 00"
Sunlit
Object was in daylight at epoch
Visualization orbit readout
Latitude
Unknown
Longitude
Unknown
Altitude
Unknown
Speed
Unknown
Apparent Right ascension
Unknown
Apparent Declination
Unknown
Sunlit
N/A
Visualization observer readout
Local Sidereal Time
07:14:56
Azimuth
Unknown
Elevation
Unknown
Doppler factor
Unknown
Orbital elements
Apogee altitude
476.26 km
Perigee altitude
474.633 km
Semi-major axis
6,853.584 km
Eccentricity
0.00012
Inclination
53.1592°
RAAN
120.4012°
Arg. of periapsis
88.489°
True anomaly
271.611°
Mean anomaly
271.6246°
Eccentric anomaly
271.6178°
Mean motion
3.82531 °/min
Orbital period
94.11 mins
BSTAR
0.00097084
Loading maneuver chart data...
Computing Atmospheric mass density...
Loading historical data...
Loading historical data...
Loading historical data...
Loading historical data...
Loading historical data...
Loading historical data...
Loading historical data...

Documentation

Showing up to 5 results
|